Погода в Красном

Россия / Ульяновская область     53°08′32″N   48°03′35″E
темп.,
°C
ветер,
м/с
пор.,
м/с
влажн.,
%
обл.,
%
осадки,
мм/ч
давл.,
гПа
погр.,
м
18 апреля, вс
вс1801:00+10всв511641 0.0 1018257
04:00+8св3766100 0.0 1019215
07:00+8св4962100 0.0 1018268
10:00+10св5754100 0.0 1018423
13:00+14всв674382 0.0 10181041
16:00+15св674199 0.0 10181400
19:00+13св61044100 0.0 1018462
22:00+11св61348100 0.0 1019487
19 апреля, пн
пн1901:00+8всв8136799 0.0 1020490
04:00+6всв71271100 0.0 1021462
07:00+5всв71370100 0.0 1021517
10:00+6всв81160100 0.0 1022679
13:00+9всв81056100 0.0 10211098
16:00+11в8951100 0.0 10211606
19:00+8в81161100 0.0 10231096
22:00+5в6116374 0.0 1025834
20 апреля, вт
вт2001:00+5вюв71261100 0.0 1025962
04:00+5вюв71160100 0.0 1026935
07:00+4вюв71255100 0.0 1027844
10:00+6вюв911455 0.0 1028920
13:00+9вюв911405 0.0 10271293
16:00+10вюв9113761 0.0 10261455
19:00+8вюв81242100 0.0 10251224
22:00+6вюв81443100 0.0 1025891
21 апреля, ср
ср2101:00+5вюв91746100 0.0 1024719
04:00+4юв91749100 0.0 1024687
07:00+3вюв91751100 0.0 1023705
10:00+2юв81768100 1.1 1024805
13:00+1юв91890100 3.3 1024725
16:00+2юв81790100 4.1 1024840
19:00+3ююв71593100 1.3 1024778
22:00+3ююв61295100 2.2 1024647
22 апреля, чт
чт2201:00+3ююв51096100 0.1 1025524
04:00+4ююв3998100 0.1 1025431
07:00+4ююв3899100 0.1 1026421
10:00+6ююв3696100 0.1 1027356
13:00+8ююв4585100 0.0 1027554
16:00+9ююв5679100 0.0 1027799
19:00+8ююв4783100 0.0 1028396
22:00+6ююв4791100 0.0 1028323